INJ248 LCLK-LGTS

Flight info

Callsign INJ248
Flight time 1h 57m
Altitude 36000
Route PHA M31 GENOS DCT TOSKA DCT USINI UL995 KOPAR DCT NEVRA UN137 SKP UL617 LEKPO
Aircraft B738/M-LGTS/L

Departure

Time 2026-05-06 16:56
Airport Larnaca International Airport (LCLK)

Arrival

Time 2026-05-06 18:53
Airport Thessaloniki Macedonia International Airport (LGTS)
Time Latitude Longitude Altitude Speed Heading
2026-05-06 16:49 34.88544 33.63336 16 ft 0 kts 45°
2026-05-06 16:50 34.88540 33.63331 16 ft 2 kts 45°
2026-05-06 16:50 34.88530 33.63315 16 ft 3 kts 60°
2026-05-06 16:50 34.88523 33.63293 16 ft 3 kts 78°
2026-05-06 16:51 34.88522 33.63268 16 ft 3 kts 96°
2026-05-06 16:51 34.88527 33.63244 16 ft 3 kts 111°
2026-05-06 16:51 34.88536 33.63222 16 ft 3 kts 125°
2026-05-06 16:51 34.88547 33.63207 16 ft 0 kts 134°
2026-05-06 16:53 34.88546 33.63207 16 ft 1 kts 134°
2026-05-06 16:53 34.88529 33.63230 16 ft 4 kts 126°
2026-05-06 16:53 34.88508 33.63277 16 ft 8 kts 122°
2026-05-06 16:54 34.88476 33.63321 16 ft 5 kts 135°
2026-05-06 16:54 34.88454 33.63358 16 ft 7 kts 112°
2026-05-06 16:54 34.88420 33.63426 16 ft 11 kts 131°
2026-05-06 16:54 34.88380 33.63481 16 ft 7 kts 131°
2026-05-06 16:55 34.88319 33.63528 16 ft 12 kts 185°
2026-05-06 16:55 34.88273 33.63490 16 ft 4 kts 225°
2026-05-06 16:55 34.88256 33.63470 16 ft 11 kts 225°
2026-05-06 16:55 34.88036 33.63199 16 ft 78 kts 225°
2026-05-06 16:56 34.87502 33.62541 16 ft 138 kts 225°
2026-05-06 16:56 34.86755 33.61622 391 ft 159 kts 225°
2026-05-06 16:56 34.85961 33.60642 1053 ft 167 kts 226°
2026-05-06 16:56 34.85136 33.59587 1726 ft 175 kts 227°
2026-05-06 16:57 34.84276 33.58486 2304 ft 188 kts 227°
2026-05-06 16:57 34.83341 33.57285 2887 ft 201 kts 227°
2026-05-06 16:57 34.82342 33.56002 3449 ft 214 kts 227°
2026-05-06 16:57 34.81287 33.54647 3939 ft 231 kts 227°
2026-05-06 16:58 34.80140 33.53173 4435 ft 249 kts 227°
2026-05-06 16:58 34.78911 33.51593 4997 ft 263 kts 227°
2026-05-06 16:58 34.77649 33.49971 5763 ft 269 kts 227°
2026-05-06 16:58 34.76351 33.48303 6565 ft 273 kts 227°
2026-05-06 16:59 34.75026 33.46599 7347 ft 278 kts 227°
2026-05-06 16:59 34.73685 33.44875 8121 ft 282 kts 227°
2026-05-06 16:59 34.72318 33.43119 8887 ft 287 kts 227°
2026-05-06 16:59 34.70955 33.41368 9648 ft 290 kts 227°
2026-05-06 17:00 34.69568 33.39575 10421 ft 293 kts 230°
2026-05-06 17:00 34.68512 33.37454 11021 ft 299 kts 251°
2026-05-06 17:00 34.68089 33.34936 11392 ft 313 kts 267°
2026-05-06 17:00 34.68064 33.32211 11690 ft 331 kts 272°
2026-05-06 17:01 34.68176 33.29359 12044 ft 345 kts 274°
2026-05-06 17:01 34.68324 33.26413 12668 ft 351 kts 274°
2026-05-06 17:01 34.68458 33.23439 13383 ft 353 kts 274°
2026-05-06 17:01 34.68578 33.20568 14063 ft 355 kts 274°
2026-05-06 17:02 34.68695 33.17671 14735 ft 358 kts 274°
2026-05-06 17:02 34.68814 33.14688 15413 ft 360 kts 274°
2026-05-06 17:02 34.68934 33.11618 16083 ft 362 kts 274°
2026-05-06 17:02 34.69051 33.08845 16665 ft 364 kts 274°
2026-05-06 17:03 34.69173 33.05946 17253 ft 366 kts 274°
2026-05-06 17:03 34.69299 33.02832 17851 ft 369 kts 274°
2026-05-06 17:03 34.69420 32.99711 18451 ft 371 kts 274°
2026-05-06 17:03 34.69539 32.96565 19034 ft 374 kts 274°
2026-05-06 17:04 34.69657 32.93392 19604 ft 376 kts 274°
2026-05-06 17:04 34.69773 32.90219 20163 ft 378 kts 274°
2026-05-06 17:04 34.69889 32.87016 20703 ft 380 kts 274°
2026-05-06 17:04 34.70005 32.83794 21222 ft 383 kts 274°
2026-05-06 17:05 34.70121 32.80547 21726 ft 385 kts 274°
2026-05-06 17:05 34.70238 32.77274 22207 ft 387 kts 274°
2026-05-06 17:05 34.70355 32.73995 22688 ft 389 kts 274°
2026-05-06 17:05 34.70472 32.70747 23144 ft 391 kts 274°
2026-05-06 17:06 34.70595 32.67430 23609 ft 393 kts 274°
2026-05-06 17:06 34.70714 32.64100 24052 ft 395 kts 274°
2026-05-06 17:06 34.70831 32.60748 24489 ft 397 kts 274°
2026-05-06 17:06 34.70946 32.57389 24917 ft 398 kts 274°
2026-05-06 17:07 34.71062 32.54015 25327 ft 400 kts 274°
2026-05-06 17:07 34.71161 32.50641 25726 ft 402 kts 272°
2026-05-06 17:07 34.71086 32.47216 26110 ft 405 kts 269°
2026-05-06 17:07 34.70896 32.43794 26496 ft 406 kts 268°
2026-05-06 17:08 34.70688 32.40364 26857 ft 408 kts 268°
2026-05-06 17:08 34.70487 32.36957 27202 ft 409 kts 268°
2026-05-06 17:08 34.70290 32.33529 27540 ft 411 kts 268°
2026-05-06 17:08 34.70091 32.30022 27865 ft 413 kts 268°
2026-05-06 17:09 34.69912 32.26532 28190 ft 414 kts 269°
2026-05-06 17:09 34.69732 32.23029 28504 ft 416 kts 269°
2026-05-06 17:09 34.69545 32.19511 28820 ft 417 kts 269°
2026-05-06 17:09 34.69354 32.15989 29110 ft 418 kts 269°
2026-05-06 17:10 34.69158 32.12459 29484 ft 417 kts 269°
2026-05-06 17:10 34.68963 32.08970 29902 ft 415 kts 269°
2026-05-06 17:10 34.68765 32.05478 30254 ft 415 kts 269°
2026-05-06 17:10 34.68566 32.01981 30643 ft 413 kts 269°
2026-05-06 17:11 34.68368 31.98494 31028 ft 412 kts 269°
2026-05-06 17:11 34.68171 31.95029 31425 ft 410 kts 270°
2026-05-06 17:11 34.68136 31.91575 31775 ft 407 kts 275°
2026-05-06 17:11 34.68383 31.88198 32125 ft 404 kts 280°
2026-05-06 17:12 34.68822 31.84833 32444 ft 403 kts 282°
2026-05-06 17:12 34.69323 31.81498 32786 ft 401 kts 282°
2026-05-06 17:12 34.69832 31.78171 33129 ft 400 kts 282°
2026-05-06 17:12 34.70342 31.74851 33460 ft 398 kts 282°
2026-05-06 17:13 34.70852 31.71543 33810 ft 397 kts 282°
2026-05-06 17:13 34.71360 31.68246 34114 ft 396 kts 282°
2026-05-06 17:13 34.71863 31.64993 34361 ft 396 kts 282°
2026-05-06 17:13 34.72372 31.61695 34592 ft 397 kts 282°
2026-05-06 17:14 34.72882 31.58396 34835 ft 397 kts 282°
2026-05-06 17:14 34.73392 31.55089 35085 ft 397 kts 282°
2026-05-06 17:14 34.73902 31.51785 35323 ft 397 kts 282°
2026-05-06 17:14 34.74413 31.48489 35592 ft 397 kts 282°
2026-05-06 17:15 34.74938 31.45190 35809 ft 397 kts 282°
2026-05-06 17:15 34.75449 31.41961 36034 ft 397 kts 282°
2026-05-06 17:15 34.75974 31.38622 36072 ft 401 kts 282°
2026-05-06 17:16 34.77015 31.31953 36082 ft 400 kts 282°
2026-05-06 17:16 34.78044 31.25320 36084 ft 398 kts 282°
2026-05-06 17:17 34.79065 31.18695 36084 ft 398 kts 282°
2026-05-06 17:17 34.80082 31.12064 36084 ft 399 kts 282°
2026-05-06 17:18 34.81098 31.05409 36084 ft 400 kts 282°
2026-05-06 17:18 34.82104 30.98799 36084 ft 399 kts 282°
2026-05-06 17:19 34.83113 30.92131 36084 ft 399 kts 282°
2026-05-06 17:19 34.84112 30.85513 36084 ft 399 kts 282°
2026-05-06 17:20 34.85112 30.78856 36084 ft 399 kts 282°
2026-05-06 17:20 34.86110 30.72190 36084 ft 399 kts 282°
2026-05-06 17:21 34.87102 30.65531 36085 ft 399 kts 282°
2026-05-06 17:21 34.88092 30.58866 36085 ft 399 kts 282°
2026-05-06 17:22 34.89074 30.52226 36085 ft 400 kts 282°
2026-05-06 17:22 34.90056 30.45563 36085 ft 399 kts 282°
2026-05-06 17:23 34.91035 30.38900 36085 ft 399 kts 282°
2026-05-06 17:23 34.92024 30.32278 36085 ft 399 kts 282°
2026-05-06 17:24 34.92999 30.25596 36085 ft 400 kts 282°
2026-05-06 17:24 34.93962 30.18921 36083 ft 401 kts 280°
2026-05-06 17:25 34.94921 30.12226 36083 ft 401 kts 280°
2026-05-06 17:25 34.95881 30.05517 36083 ft 401 kts 281°
2026-05-06 17:26 34.97757 29.99189 36082 ft 403 kts 297°
2026-05-06 17:26 35.00911 29.93435 36083 ft 407 kts 303°
2026-05-06 17:27 35.04252 29.87921 36082 ft 406 kts 303°
2026-05-06 17:27 35.07633 29.82375 36082 ft 406 kts 303°
2026-05-06 17:28 35.11018 29.76837 36082 ft 406 kts 303°
2026-05-06 17:28 35.14408 29.71295 36083 ft 406 kts 304°
2026-05-06 17:29 35.17800 29.65758 36082 ft 407 kts 304°
2026-05-06 17:29 35.21190 29.60268 36083 ft 407 kts 304°
2026-05-06 17:30 35.24595 29.54735 36082 ft 407 kts 304°
2026-05-06 17:30 35.27995 29.49196 36082 ft 407 kts 304°
2026-05-06 17:31 35.30818 29.44587 36082 ft 406 kts 304°
2026-05-06 17:31 35.34757 29.38143 36082 ft 406 kts 304°
2026-05-06 17:32 35.37581 29.33515 36082 ft 406 kts 303°
2026-05-06 17:32 35.40966 29.27958 36083 ft 406 kts 303°
2026-05-06 17:33 35.44349 29.22395 36082 ft 406 kts 303°
2026-05-06 17:33 35.47713 29.16855 36082 ft 406 kts 303°
2026-05-06 17:34 35.51083 29.11295 36083 ft 406 kts 303°
2026-05-06 17:34 35.54473 29.05693 36082 ft 406 kts 303°
2026-05-06 17:35 35.57750 29.00270 36083 ft 406 kts 303°
2026-05-06 17:35 35.61162 28.94613 36083 ft 406 kts 303°
2026-05-06 17:36 35.66202 28.86241 36083 ft 406 kts 303°
2026-05-06 17:36 35.69561 28.80650 36082 ft 406 kts 303°
2026-05-06 17:37 35.72922 28.75048 36083 ft 406 kts 303°
2026-05-06 17:37 35.76279 28.69441 36082 ft 406 kts 303°
2026-05-06 17:38 35.79631 28.63836 36083 ft 406 kts 303°
2026-05-06 17:38 35.82978 28.58229 36083 ft 406 kts 303°
2026-05-06 17:39 35.86309 28.52639 36082 ft 406 kts 303°
2026-05-06 17:39 35.89655 28.47016 36082 ft 406 kts 303°
2026-05-06 17:40 35.92998 28.41389 36083 ft 406 kts 303°
2026-05-06 17:40 35.96339 28.35755 36082 ft 406 kts 303°
2026-05-06 17:41 35.99654 28.30157 36082 ft 406 kts 303°
2026-05-06 17:41 36.03006 28.24486 36083 ft 406 kts 303°
2026-05-06 17:42 36.06313 28.18882 36082 ft 406 kts 303°
2026-05-06 17:42 36.09637 28.13241 36082 ft 406 kts 303°
2026-05-06 17:43 36.12962 28.07588 36082 ft 406 kts 303°
2026-05-06 17:43 36.16284 28.01931 36082 ft 406 kts 303°
2026-05-06 17:44 36.19611 27.96256 36082 ft 406 kts 303°
2026-05-06 17:44 36.22908 27.90624 36082 ft 406 kts 303°
2026-05-06 17:45 36.26220 27.84955 36083 ft 406 kts 303°
2026-05-06 17:45 36.29536 27.79272 36083 ft 406 kts 303°
2026-05-06 17:46 36.32844 27.73591 36082 ft 406 kts 303°
2026-05-06 17:46 36.36147 27.67910 36082 ft 406 kts 303°
2026-05-06 17:47 36.39452 27.62216 36082 ft 406 kts 303°
2026-05-06 17:47 36.42750 27.56526 36083 ft 406 kts 303°
2026-05-06 17:48 36.46047 27.50828 36082 ft 406 kts 303°
2026-05-06 17:48 36.49332 27.45148 36082 ft 406 kts 303°
2026-05-06 17:49 36.52628 27.39466 36083 ft 406 kts 303°
2026-05-06 17:49 36.55918 27.33752 36083 ft 406 kts 302°
2026-05-06 17:50 36.59199 27.28029 36083 ft 406 kts 302°
2026-05-06 17:50 36.62473 27.22308 36083 ft 406 kts 302°
2026-05-06 17:51 36.65753 27.16570 36083 ft 406 kts 302°
2026-05-06 17:51 36.68559 27.10551 36083 ft 403 kts 293°
2026-05-06 17:52 36.70834 27.04168 36083 ft 403 kts 292°
2026-05-06 17:52 36.73075 26.97765 36082 ft 403 kts 292°
2026-05-06 17:53 36.75290 26.91374 36083 ft 403 kts 291°
2026-05-06 17:53 36.77501 26.84958 36083 ft 402 kts 291°
2026-05-06 17:54 36.79713 26.78521 36082 ft 402 kts 291°
2026-05-06 17:54 36.81952 26.72116 36082 ft 403 kts 294°
2026-05-06 17:55 36.84905 26.66178 36083 ft 406 kts 304°
2026-05-06 17:55 36.88418 26.60614 36082 ft 407 kts 305°
2026-05-06 17:56 36.91927 26.55150 36082 ft 407 kts 306°
2026-05-06 17:56 36.95499 26.49585 36082 ft 407 kts 306°
2026-05-06 17:57 36.99047 26.44053 36083 ft 407 kts 305°
2026-05-06 17:57 37.02588 26.38525 36083 ft 407 kts 305°
2026-05-06 17:58 37.06144 26.32996 36082 ft 407 kts 306°
2026-05-06 17:58 37.09710 26.27466 36082 ft 407 kts 306°
2026-05-06 17:59 37.13236 26.21976 36082 ft 407 kts 306°
2026-05-06 17:59 37.16443 26.16971 36083 ft 407 kts 306°
2026-05-06 18:00 37.19202 26.12655 36083 ft 406 kts 309°
2026-05-06 18:00 37.22693 26.07185 36082 ft 402 kts 309°
2026-05-06 18:01 37.26184 26.01705 36083 ft 402 kts 309°
2026-05-06 18:01 37.29693 25.96184 36083 ft 405 kts 308°
2026-05-06 18:02 37.33153 25.90733 36082 ft 405 kts 308°
2026-05-06 18:02 37.36654 25.85207 36083 ft 405 kts 308°
2026-05-06 18:03 37.40144 25.79689 36083 ft 404 kts 308°
2026-05-06 18:03 37.43646 25.74142 36082 ft 405 kts 308°
2026-05-06 18:04 37.47151 25.68581 36082 ft 404 kts 308°
2026-05-06 18:04 37.50644 25.63030 36083 ft 405 kts 308°
2026-05-06 18:05 37.54147 25.57454 36083 ft 405 kts 308°
2026-05-06 18:05 37.57642 25.51881 36083 ft 405 kts 308°
2026-05-06 18:06 37.61110 25.46342 36082 ft 405 kts 308°
2026-05-06 18:06 37.64608 25.40745 36082 ft 405 kts 308°
2026-05-06 18:07 37.67588 25.35970 36082 ft 405 kts 308°
2026-05-06 18:07 37.71083 25.30360 36082 ft 406 kts 308°
2026-05-06 18:08 37.74573 25.24749 36083 ft 406 kts 308°
2026-05-06 18:08 37.78069 25.19119 36082 ft 407 kts 308°
2026-05-06 18:09 37.81566 25.13477 36082 ft 407 kts 308°
2026-05-06 18:09 37.85062 25.07827 36083 ft 408 kts 308°
2026-05-06 18:10 37.88549 25.02182 36082 ft 409 kts 308°
2026-05-06 18:10 37.92051 24.96504 36082 ft 408 kts 308°
2026-05-06 18:11 37.95555 24.90812 36082 ft 409 kts 308°
2026-05-06 18:11 37.99037 24.85174 36080 ft 408 kts 308°
2026-05-06 18:12 38.02542 24.79476 36077 ft 410 kts 308°
2026-05-06 18:12 38.06042 24.73755 36077 ft 410 kts 308°
2026-05-06 18:13 38.09529 24.68036 36078 ft 409 kts 307°
2026-05-06 18:13 38.12995 24.62342 36078 ft 409 kts 307°
2026-05-06 18:14 38.16687 24.56821 36075 ft 411 kts 315°
2026-05-06 18:14 38.21093 24.52194 36076 ft 413 kts 322°
2026-05-06 18:15 38.25743 24.47894 36076 ft 412 kts 322°
2026-05-06 18:15 38.30228 24.43753 36076 ft 412 kts 322°
2026-05-06 18:16 38.33521 24.40711 36074 ft 412 kts 322°
2026-05-06 18:16 38.37897 24.36666 36070 ft 413 kts 322°
2026-05-06 18:17 38.42544 24.32369 36068 ft 413 kts 322°
2026-05-06 18:17 38.47167 24.28090 36068 ft 412 kts 322°
2026-05-06 18:18 38.51819 24.23773 36064 ft 412 kts 322°
2026-05-06 18:18 38.56455 24.19459 36063 ft 412 kts 322°
2026-05-06 18:19 38.61068 24.15160 36063 ft 412 kts 322°
2026-05-06 18:19 38.65700 24.10835 36057 ft 412 kts 322°
2026-05-06 18:20 38.70314 24.06523 36048 ft 412 kts 322°
2026-05-06 18:20 38.74965 24.02200 36045 ft 412 kts 322°
2026-05-06 18:21 38.79585 23.97887 36049 ft 412 kts 322°
2026-05-06 18:21 38.81904 23.95717 35837 ft 411 kts 322°
2026-05-06 18:21 38.84197 23.93568 35325 ft 408 kts 322°
2026-05-06 18:22 38.86492 23.91415 34653 ft 409 kts 322°
2026-05-06 18:22 38.88795 23.89252 33974 ft 410 kts 322°
2026-05-06 18:22 38.91110 23.87076 33290 ft 411 kts 322°
2026-05-06 18:22 38.93428 23.84907 32604 ft 412 kts 322°
2026-05-06 18:23 38.94314 23.84077 32378 ft 412 kts 322°
2026-05-06 18:23 38.94495 23.83907 32339 ft 412 kts 322°
2026-05-06 18:23 38.96772 23.81769 31845 ft 408 kts 322°
2026-05-06 18:23 38.99053 23.79621 31356 ft 404 kts 322°
2026-05-06 18:24 39.01308 23.77492 30875 ft 401 kts 322°
2026-05-06 18:24 39.03554 23.75368 30400 ft 397 kts 322°
2026-05-06 18:24 39.05761 23.73277 29937 ft 393 kts 322°
2026-05-06 18:24 39.07964 23.71188 29484 ft 390 kts 322°
2026-05-06 18:25 39.10116 23.69146 29045 ft 386 kts 322°
2026-05-06 18:25 39.12285 23.67086 28597 ft 383 kts 322°
2026-05-06 18:25 39.14416 23.65063 28189 ft 379 kts 322°
2026-05-06 18:25 39.14899 23.64604 28094 ft 378 kts 322°
2026-05-06 18:26 39.16293 23.63355 27824 ft 376 kts 326°
2026-05-06 18:26 39.18558 23.61668 27396 ft 373 kts 331°
2026-05-06 18:26 39.20898 23.60254 26987 ft 371 kts 335°
2026-05-06 18:26 39.23297 23.59049 26563 ft 369 kts 338°
2026-05-06 18:27 39.25698 23.57912 26145 ft 366 kts 338°
2026-05-06 18:27 39.28077 23.56779 25730 ft 363 kts 338°
2026-05-06 18:27 39.30439 23.55645 25321 ft 361 kts 338°
2026-05-06 18:27 39.32780 23.54516 24918 ft 358 kts 338°
2026-05-06 18:28 39.35110 23.53388 24509 ft 356 kts 338°
2026-05-06 18:28 39.37437 23.52261 24098 ft 355 kts 338°
2026-05-06 18:28 39.39743 23.51143 23701 ft 353 kts 338°
2026-05-06 18:28 39.42007 23.50045 23307 ft 351 kts 338°
2026-05-06 18:29 39.44333 23.48927 22888 ft 350 kts 338°
2026-05-06 18:29 39.46596 23.47838 22497 ft 348 kts 338°
2026-05-06 18:29 39.48871 23.46739 22096 ft 347 kts 338°
2026-05-06 18:29 39.51103 23.45660 21704 ft 345 kts 338°
2026-05-06 18:30 39.53282 23.44603 21326 ft 344 kts 338°
2026-05-06 18:30 39.55522 23.43515 20931 ft 343 kts 338°
2026-05-06 18:30 39.57762 23.42427 20540 ft 341 kts 338°
2026-05-06 18:30 39.59981 23.41346 20155 ft 340 kts 338°
2026-05-06 18:31 39.62188 23.40271 19768 ft 339 kts 338°
2026-05-06 18:31 39.64373 23.39206 19384 ft 337 kts 338°
2026-05-06 18:31 39.66560 23.38140 18999 ft 336 kts 338°
2026-05-06 18:31 39.68763 23.37065 18623 ft 335 kts 338°
2026-05-06 18:32 39.70944 23.36009 18239 ft 334 kts 338°
2026-05-06 18:32 39.73118 23.34975 17864 ft 333 kts 339°
2026-05-06 18:32 39.75295 23.33938 17490 ft 332 kts 339°
2026-05-06 18:32 39.77451 23.32911 17112 ft 331 kts 339°
2026-05-06 18:33 39.79626 23.31872 16736 ft 330 kts 339°
2026-05-06 18:33 39.81776 23.30844 16370 ft 329 kts 339°
2026-05-06 18:33 39.83920 23.29818 15996 ft 328 kts 339°
2026-05-06 18:33 39.86059 23.28794 15627 ft 327 kts 339°
2026-05-06 18:34 39.88171 23.27781 15268 ft 326 kts 339°
2026-05-06 18:34 39.94305 23.24836 14218 ft 324 kts 339°
2026-05-06 18:35 39.96413 23.23822 13855 ft 323 kts 339°
2026-05-06 18:35 39.98521 23.22808 13494 ft 322 kts 339°
2026-05-06 18:35 40.00619 23.21798 13134 ft 322 kts 340°
2026-05-06 18:35 40.02695 23.20803 12770 ft 321 kts 340°
2026-05-06 18:36 40.04795 23.19797 12395 ft 321 kts 340°
2026-05-06 18:36 40.06898 23.18789 12013 ft 321 kts 340°
2026-05-06 18:36 40.08990 23.17784 11635 ft 321 kts 340°
2026-05-06 18:36 40.11074 23.16782 11303 ft 313 kts 340°
2026-05-06 18:37 40.13076 23.15817 11142 ft 300 kts 340°
2026-05-06 18:37 40.14995 23.14892 10990 ft 288 kts 340°
2026-05-06 18:37 40.16498 23.14167 10871 ft 280 kts 340°
2026-05-06 18:37 40.17744 23.13566 10728 ft 276 kts 338°
2026-05-06 18:38 40.19515 23.12710 10577 ft 268 kts 338°
2026-05-06 18:38 40.21263 23.11866 10434 ft 270 kts 338°
2026-05-06 18:38 40.23056 23.11004 10292 ft 276 kts 338°
2026-05-06 18:38 40.24885 23.10094 10179 ft 286 kts 337°
2026-05-06 18:39 40.26754 23.09198 9915 ft 285 kts 338°
2026-05-06 18:39 40.28609 23.08306 9651 ft 284 kts 338°
2026-05-06 18:39 40.30461 23.07413 9377 ft 283 kts 338°
2026-05-06 18:40 40.33303 23.06012 8960 ft 289 kts 338°
2026-05-06 18:40 40.35180 23.05115 8648 ft 289 kts 338°
2026-05-06 18:40 40.37059 23.04205 8371 ft 288 kts 338°
2026-05-06 18:40 40.38947 23.03289 8087 ft 287 kts 338°
2026-05-06 18:41 40.40822 23.02376 7799 ft 286 kts 338°
2026-05-06 18:41 40.42661 23.01480 7515 ft 285 kts 338°
2026-05-06 18:41 40.44514 23.00576 7223 ft 284 kts 338°
2026-05-06 18:41 40.46369 22.99670 6929 ft 283 kts 338°
2026-05-06 18:42 40.48215 22.98769 6635 ft 282 kts 338°
2026-05-06 18:42 40.50054 22.97871 6341 ft 281 kts 339°
2026-05-06 18:42 40.51878 22.96942 6059 ft 279 kts 335°
2026-05-06 18:42 40.53599 22.95799 5897 ft 274 kts 330°
2026-05-06 18:43 40.55232 22.94579 5737 ft 271 kts 329°
2026-05-06 18:43 40.56859 22.93346 5571 ft 269 kts 329°
2026-05-06 18:43 40.57639 22.92756 5496 ft 269 kts 329°
2026-05-06 18:43 40.59267 22.91530 5343 ft 269 kts 329°
2026-05-06 18:44 40.60893 22.90310 5192 ft 268 kts 329°
2026-05-06 18:44 40.62516 22.89094 5044 ft 267 kts 329°
2026-05-06 18:44 40.64126 22.87891 4899 ft 267 kts 330°
2026-05-06 18:44 40.65741 22.86685 4754 ft 266 kts 330°
2026-05-06 18:45 40.66332 22.86245 4701 ft 266 kts 330°
2026-05-06 18:45 40.67926 22.85056 4558 ft 265 kts 330°
2026-05-06 18:45 40.69532 22.83861 4414 ft 264 kts 330°
2026-05-06 18:45 40.71132 22.82671 4265 ft 263 kts 330°
2026-05-06 18:46 40.72732 22.81479 3859 ft 264 kts 330°
2026-05-06 18:46 40.74362 22.80534 3672 ft 256 kts 351°
2026-05-06 18:46 40.75972 22.80768 3574 ft 253 kts 24°
2026-05-06 18:46 40.77265 22.82220 3508 ft 244 kts 60°
2026-05-06 18:47 40.77684 22.84313 3501 ft 235 kts 92°
2026-05-06 18:47 40.77375 22.86386 3505 ft 228 kts 111°
2026-05-06 18:47 40.76468 22.88034 3479 ft 221 kts 141°
2026-05-06 18:47 40.76088 22.88404 3488 ft 220 kts 147°
2026-05-06 18:48 40.74954 22.89179 3500 ft 218 kts 157°
2026-05-06 18:48 40.73552 22.89881 3531 ft 210 kts 159°
2026-05-06 18:48 40.72219 22.90488 3548 ft 198 kts 162°
2026-05-06 18:48 40.70954 22.90975 3493 ft 183 kts 165°
2026-05-06 18:49 40.69735 22.91395 3340 ft 180 kts 165°
2026-05-06 18:49 40.68526 22.91796 3102 ft 176 kts 166°
2026-05-06 18:49 40.67356 22.92177 2855 ft 168 kts 166°
2026-05-06 18:49 40.66259 22.92531 2639 ft 158 kts 166°
2026-05-06 18:50 40.65221 22.92864 2462 ft 149 kts 166°
2026-05-06 18:50 40.64229 22.93182 2249 ft 147 kts 166°
2026-05-06 18:50 40.63345 22.93465 2072 ft 148 kts 166°
2026-05-06 18:50 40.62337 22.93788 1873 ft 148 kts 166°
2026-05-06 18:51 40.61348 22.94103 1675 ft 146 kts 166°
2026-05-06 18:51 40.60361 22.94419 1476 ft 144 kts 165°
2026-05-06 18:51 40.59398 22.94727 1288 ft 142 kts 165°
2026-05-06 18:51 40.58431 22.95035 1103 ft 142 kts 165°
2026-05-06 18:52 40.57479 22.95339 916 ft 144 kts 165°
2026-05-06 18:52 40.56502 22.95651 724 ft 145 kts 165°
2026-05-06 18:52 40.55521 22.95963 531 ft 143 kts 165°
2026-05-06 18:52 40.54557 22.96271 341 ft 142 kts 165°
2026-05-06 18:53 40.53594 22.96578 152 ft 142 kts 166°
2026-05-06 18:53 40.52636 22.96881 18 ft 136 kts 166°
2026-05-06 18:53 40.51862 22.97130 15 ft 85 kts 167°
2026-05-06 18:53 40.51589 22.97215 15 ft 28 kts 166°
2026-05-06 18:54 40.51501 22.97300 15 ft 12 kts 88°
2026-05-06 18:54 40.51517 22.97362 15 ft 4 kts 62°
2026-05-06 18:54 40.51518 22.97365 15 ft 0 kts 62°
2026-05-06 18:55 40.51520 22.97369 15 ft 3 kts 62°
2026-05-06 18:56 40.51552 22.97403 15 ft 9 kts
2026-05-06 18:56 40.51656 22.97380 15 ft 21 kts 347°
2026-05-06 18:56 40.51795 22.97334 15 ft 16 kts 346°
2026-05-06 18:56 40.51921 22.97292 15 ft 22 kts 346°
2026-05-06 18:57 40.52060 22.97248 15 ft 16 kts 347°
2026-05-06 18:57 40.52151 22.97221 15 ft 12 kts 347°
2026-05-06 18:57 40.52240 22.97192 15 ft 11 kts 346°
2026-05-06 18:57 40.52313 22.97168 15 ft 10 kts 346°
2026-05-06 18:58 40.52378 22.97182 15 ft 9 kts 59°
2026-05-06 18:58 40.52391 22.97236 15 ft 8 kts 70°
2026-05-06 18:58 40.52417 22.97323 15 ft 9 kts 98°
2026-05-06 18:58 40.52397 22.97367 15 ft 3 kts 130°
2026-05-06 18:59 40.52385 22.97382 15 ft 5 kts 139°
2026-05-06 18:59 40.52365 22.97405 15 ft 5 kts 139°
2026-05-06 18:59 40.52331 22.97447 15 ft 7 kts 129°
2026-05-06 18:59 40.52325 22.97508 15 ft 8 kts 58°
2026-05-06 19:00 40.52351 22.97535 15 ft 1 kts 41°
2026-05-06 19:00 40.52352 22.97536 15 ft 0 kts 43°